Flag for U.S.A. Weather past 2 weeks in Germantown, Maryland, U.S.A.

Now
50 °F

Fog.


Feels Like: 50 °F
Forecast: 53 / 78 °F
Wind: No wind

Location: Frederick Municipal Airport

Current Time: Apr 18, 2015 at 4:57:30 AM

Latest Report: Apr 18, 2015 at 4:25 AM


Visibility: 1 mi

Pressure: 30.02 "Hg

Humidity: 82%

Dew point: 45 °F

Location of GermantownLocation

Historic Weather in Germantown — Graph

°F

Germantown temperature yesterday

Maximum temperature yesterday: 79 °F (at 3:51 PM)
Minimum temperature yesterday: 55 °F (at 12:40 AM)
Average temperature yesterday: 61 °F

Past Weeks' High & Low Weather Summary

 TemperatureHumidityPressure
High81 °F (Apr 13, 3:45 PM)100% (Apr 15, 6:50 AM)30.46 "Hg (Apr 15, 6:50 AM)
Low32 °F (Apr 12, 5:05 AM)5% (Apr 6, 3:55 PM)29.64 "Hg (Apr 4, 12:25 AM)
Average54 °F59%30.16 "Hg
* Reported Apr 3 3:00 AM — Apr 18 3:25 AM, Germantown, Weather by CustomWeather, © 2015

Note: Actual official high and low records may vary slightly from our data, if they occured in-between our weather recording intervals... More about our weather records

Advertising

Germantown weather history for previous 24 hours

 ConditionsComfort  
Time TempWeatherWind HumidityBarometerVisibility
3:25 AM
Sat, Apr 18
52 °FClear.No wind82%30.02 "Hg5 mi
3:05 AM52 °FFog.No wind82%30.02 "Hg5 mi
2:45 AM54 °FClear.No wind88%30.02 "Hg7 mi
2:25 AM54 °FClear.6 mph82%30.02 "Hg10 mi
2:05 AM54 °FClear.3 mph82%30.03 "Hg7 mi
1:45 AM52 °FFog.No wind88%30.04 "Hg5 mi
1:05 AM55 °FClear.No wind82%30.04 "Hg10 mi
12:45 AM55 °FClear.3 mph82%30.04 "Hg10 mi
12:25 AM57 °FPassing clouds.No wind82%30.04 "Hg10 mi
12:05 AM55 °FPassing clouds.No wind82%30.04 "Hg10 mi
11:45 PM
Fri, Apr 17
55 °FPassing clouds.No wind82%30.03 "Hg10 mi
11:25 PM59 °FClear.No wind77%30.03 "Hg10 mi
10:40 PM59 °FClear.No wind72%30.02 "Hg10 mi
10:20 PM61 °FClear.No wind68%30.02 "Hg10 mi
10:00 PM59 °FClear.No wind77%30.02 "Hg10 mi
9:40 PM64 °FClear.No wind64%30.01 "Hg10 mi
9:00 PM66 °FPassing clouds.No wind60%30.00 "Hg10 mi
8:40 PM68 °FScattered clouds.3 mph53%29.99 "Hg10 mi
7:52 PM72 °FSunny.6 mph47%29.98 "Hg10 mi
6:48 PM75 °FPassing clouds.8 mph44%29.97 "Hg10 mi
4:48 PM79 °FScattered clouds.5 mph42%29.97 "Hg10 mi
3:51 PM79 °FBroken clouds.5 mph42%29.99 "Hg10 mi
2:47 PM77 °FBroken clouds.7 mph44%30.02 "Hg10 mi
1:48 PM75 °FScattered clouds.7 mph47%30.04 "Hg10 mi
11:48 AM72 °FBroken clouds.5 mph53%30.09 "Hg10 mi
10:53 AM68 °FSunny.5 mph64%30.10 "Hg10 mi
9:50 AM63 °FScattered clouds.6 mph73%30.12 "Hg10 mi
8:45 AM61 °FScattered clouds.7 mph77%30.13 "Hg10 mi
7:45 AM57 °FSunny.5 mph88%30.14 "Hg10 mi
6:45 AM55 °FPassing clouds.No wind88%30.14 "Hg10 mi
6:20 AM55 °FOvercast.3 mph88%30.15 "Hg10 mi
6:00 AM55 °FMostly cloudy.No wind88%30.15 "Hg10 mi
5:35 AM55 °FOvercast.No wind88%30.15 "Hg10 mi
5:20 AM55 °FMostly cloudy.No wind88%30.15 "Hg10 mi
5:00 AM55 °FLight rain. Mostly cloudy.3 mph88%30.15 "Hg10 mi
4:40 AM55 °FOvercast.No wind88%30.16 "Hg10 mi
4:20 AM55 °FMostly cloudy.No wind88%30.17 "Hg10 mi
4:00 AM55 °FOvercast.No wind88%30.17 "Hg10 mi
Weather by CustomWeather, © 2015

See weather overviewHow to use our weather pages